Weather in Buol

Indonesia     1°10′10″N   121°24′23″E
temp.,
°C
wind,
m/s
gust,
m/s
humid.,
%
clouds,
%
prec.,
mm/h
press.,
hPa
HPBL,
m
16 april, fri
fri1623:00+27sw2281100 0.0 1011223
02:00+26ssw3381100 0.1 1009188
05:00+26sw2278100 0.0 1009165
08:00+26ssw3378100 0.0 1011188
11:00+27n1172100 0.0 1010123
14:00+28n2268100 0.0 1008571
17:00+28e016998 0.2 1008500
20:00+28sse2272100 0.3 1010488
17 april, sat
sat1723:00+27s3378100 0.2 1011252
02:00+26sw3382100 0.2 1009198
05:00+26ssw3381100 0.0 1009171
08:00+27sw4476100 0.0 1011206
11:00+29nnw336615 0.0 1010386
14:00+29nw777147 0.1 1008539
17:00+28w447498 2.1 1008307
20:00+28sw2277100 2.3 1010170
18 april, sun
sun1823:00+27wsw2280100 0.1 1011171
02:00+26ssw3381100 0.2 1009173
05:00+26ssw4480100 0.1 1009183
08:00+26sw3377100 0.4 1011171
11:00+28wnw5573100 0.9 1011445
14:00+29w557299 1.4 1007450
17:00+28w2272100 0.2 1008209
20:00+28sw2376100 0.2 1010207
19 april, mon
mon1923:00+27ssw3377100 0.0 1009175
02:00+26ssw5577100 0.0 1007207
05:00+26wsw447584 0.0 1008204
08:00+26ssw4474100 0.0 1010191
11:00+28sw3464100 0.0 1009323
14:00+29nw4364100 0.0 1006288
17:00+29nne2266100 0.0 1006279
20:00+28ese116898 0.0 1009234
20 april, tue
tue2023:00+27ssw3374100 0.0 1009208
02:00+26ssw4477100 0.0 1007189
05:00+26ssw4577100 0.0 1007195
08:00+27ssw4473100 0.0 1010203
11:00+29nne116297 0.0 1009263
14:00+29nnw566697 0.0 1008480
17:00+29nnw2367100 0.1 1008490
20:00+28wsw1170100 0.1 1010200